Total_Precipitation_Accumulation
1.29 1.26 1.20 1.25 1.14 1.05 1.11 1.20 1.25 1.30 1.21 1.06 1.01 1.01 1.09 1.02 1.03 1.19 1.57 2.10 2.64 3.12 3.34 3.27 3.15 3.04 3.04 2.99 3.10 3.30 3.48 3.64 3.48 3.29 3.10 2.95 3.03 3.08 2.77 2.72 2.89 3.16 3.46
1.31 1.37 1.32 1.25 1.18 1.09 1.12 1.30 1.28 1.30 1.29 1.22 1.06 1.07 1.10 1.04 1.04 1.08 1.25 1.66 2.06 2.56 3.14 3.51 3.32 3.03 2.81 2.76 2.79 2.98 3.27 3.36 3.04 2.94 2.96 3.02 3.17 3.27 2.90 2.73 2.71 2.75 3.03
1.16 1.24 1.26 1.20 1.18 1.19 1.21 1.26 1.31 1.39 1.32 1.23 1.18 1.15 1.12 1.06 1.01 1.07 1.02 1.18 1.35 1.82 2.42 2.93 3.21 3.18 3.03 2.91 2.85 2.96 3.19 3.09 2.80 2.87 3.03 3.05 3.06 3.13 3.08 2.89 2.69 2.61 2.77
1.24 1.23 1.26 1.25 1.27 1.31 1.30 1.34 1.42 1.42 1.39 1.37 1.32 1.27 1.14 1.11 1.06 1.06 1.00 0.99 1.09 1.18 1.53 1.97 2.44 2.82 3.04 3.10 3.21 3.36 3.23 2.92 2.67 2.66 2.84 2.73 2.65 2.74 2.87 2.85 2.62 2.46 2.40
1.32 1.45 1.48 1.47 1.43 1.46 1.46 1.41 1.43 1.36 1.37 1.38 1.29 1.31 1.26 1.21 1.15 1.02 1.05 1.01 1.04 1.01 1.14 1.31 1.58 1.87 2.24 2.69 3.23 3.53 3.14 2.87 2.69 2.51 2.47 2.40 2.42 2.52 2.55 2.42 2.30 2.19 2.19
1.59 1.77 1.84 1.74 1.70 1.69 1.68 1.62 1.66 1.55 1.44 1.47 1.35 1.33 1.30 1.21 1.23 1.20 1.18 1.11 1.15 1.10 1.07 1.11 1.21 1.20 1.40 1.92 2.68 3.15 3.08 2.91 2.73 2.60 2.41 2.33 2.43 2.52 2.48 2.38 2.29 2.27 2.31
1.91 2.06 1.97 2.04 2.05 1.92 1.91 1.96 2.01 1.97 1.78 1.64 1.69 1.58 1.33 1.15 1.22 1.19 1.19 1.24 1.25 1.33 1.32 1.20 1.19 1.20 1.15 1.37 1.96 2.65 2.96 2.90 2.90 2.74 2.60 2.51 2.42 2.44 2.44 2.39 2.36 2.36 2.48
2.12 2.16 2.23 2.32 2.34 2.35 2.28 2.17 2.28 2.44 2.17 1.93 2.04 2.32 1.94 1.59 1.24 1.02 1.13 1.22 1.27 1.50 1.53 1.32 1.14 1.13 1.16 1.30 1.30 1.74 2.23 2.61 2.84 2.90 2.79 2.67 2.56 2.57 2.63 2.50 2.37 2.44 2.50
2.33 2.37 2.42 2.48 2.49 2.36 2.35 2.46 2.59 2.94 2.74 2.36 2.16 2.44 2.28 1.97 1.68 1.24 1.12 1.21 1.29 1.43 1.53 1.57 1.46 1.36 1.27 1.33 1.34 1.21 1.46 1.95 2.44 2.83 2.92 2.87 2.72 2.92 3.11 2.86 2.51 2.37 2.24
2.32 2.42 2.41 2.39 2.35 2.30 2.37 2.45 2.51 2.94 3.15 2.85 2.50 2.07 1.85 1.83 1.95 1.69 1.27 1.20 1.29 1.30 1.41 1.49 1.46 1.54 1.49 1.51 1.55 1.32 1.22 1.53 2.01 2.57 2.97 3.28 3.06 2.86 2.87 2.96 2.76 2.41 2.14
2.22 2.23 2.21 2.30 2.30 2.33 2.39 2.57 2.70 2.98 3.03 3.03 2.83 2.59 2.35 2.03 1.72 1.81 1.78 1.48 1.40 1.30 1.38 1.51 1.55 1.67 1.69 1.73 1.89 1.63 1.32 1.24 1.53 2.06 2.67 3.24 3.40 3.15 2.86 2.80 2.75 2.55 2.25
2.17 2.08 2.03 2.10 2.22 2.35 2.40 2.49 2.66 2.93 3.05 3.15 3.06 2.77 2.66 2.49 2.22 2.12 1.89 1.73 1.69 1.45 1.40 1.46 1.50 1.64 1.81 1.88 1.87 1.99 1.63 1.25 1.23 1.57 1.93 2.50 3.19 3.43 3.24 3.09 3.01 2.93 2.68
1.85 1.90 1.95 2.02 2.16 2.25 2.32 2.44 2.58 2.65 2.78 3.03 3.06 2.88 2.65 2.46 2.45 2.33 2.23 1.93 1.72 1.49 1.46 1.48 1.46 1.51 1.55 1.82 1.95 2.06 1.72 1.35 1.13 1.19 1.36 1.69 2.30 2.88 3.17 3.16 3.15 3.30 3.32
1.75 1.69 1.72 1.79 2.01 2.20 2.28 2.38 2.39 2.39 2.45 2.63 2.65 2.73 2.69 2.43 2.40 2.30 2.32 2.43 2.13 1.86 1.66 1.47 1.40 1.45 1.48 1.67 1.98 2.07 1.62 1.45 1.21 1.09 1.12 1.36 1.60 1.84 2.26 2.79 3.11 3.33 3.55
1.53 1.48 1.52 1.54 1.66 1.88 2.12 2.27 2.23 2.16 2.13 2.29 2.36 2.47 2.61 2.65 2.55 2.45 2.43 2.53 2.53 2.26 2.01 1.74 1.53 1.41 1.47 1.58 1.98 1.88 1.64 1.54 1.43 1.24 1.12 1.19 1.27 1.41 1.58 1.94 2.27 2.51 2.71
1.36 1.29 1.30 1.41 1.58 1.68 1.85 2.05 2.13 2.08 2.08 2.17 2.29 2.42 2.57 2.72 2.74 2.52 2.48 2.48 2.39 2.36 2.21 1.81 1.55 1.47 1.54 1.52 1.89 1.87 1.78 1.82 1.58 1.42 1.33 1.27 1.32 1.31 1.36 1.51 1.60 1.73 1.75
1.20 1.20 1.34 1.42 1.49 1.57 1.75 2.00 2.15 2.15 2.08 2.09 2.08 2.17 2.36 2.49 2.71 2.66 2.56 2.49 2.38 2.27 2.17 1.95 1.71 1.55 1.62 1.66 1.78 1.89 1.86 1.75 1.55 1.53 1.39 1.30 1.30 1.33 1.32 1.37 1.50 1.50 1.44
0.94 1.06 1.20 1.24 1.28 1.32 1.51 1.80 2.00 2.05 2.02 1.91 1.86 1.97 2.20 2.38 2.60 2.72 2.67 2.54 2.47 2.34 2.26 2.23 2.06 1.82 1.72 1.74 1.89 2.01 1.96 1.87 1.79 1.82 1.67 1.48 1.41 1.35 1.34 1.32 1.37 1.50 1.50
0.97 1.07 1.14 1.18 1.23 1.28 1.32 1.46 1.65 1.79 1.78 1.71 1.70 1.73 1.76 1.95 2.24 2.44 2.48 2.53 2.57 2.55 2.54 2.42 2.25 2.14 2.02 1.82 1.94 2.03 2.01 2.03 1.93 1.99 1.97 1.84 1.72 1.59 1.49 1.42 1.39 1.42 1.50
0.95 1.03 1.07 1.15 1.23 1.28 1.30 1.33 1.36 1.43 1.46 1.54 1.58 1.57 1.60 1.65 1.88 2.09 2.19 2.37 2.60 2.65 2.70 2.64 2.41 2.29 2.22 2.00 2.05 2.16 2.25 2.21 2.11 1.99 2.02 1.93 1.90 1.79 1.65 1.52 1.43 1.39 1.41
0.90 0.98 1.02 1.03 1.09 1.19 1.30 1.36 1.24 1.21 1.29 1.39 1.38 1.31 1.34 1.51 1.72 1.85 1.83 2.12 2.47 2.68 2.70 2.67 2.54 2.49 2.26 2.07 1.93 1.91 2.09 2.34 2.35 2.30 2.23 1.98 1.88 1.74 1.70 1.71 1.54 1.39 1.38
0.89 0.92 0.88 0.91 0.99 1.02 1.28 1.32 1.16 1.09 1.14 1.23 1.31 1.29 1.18 1.20 1.32 1.44 1.49 1.63 1.89 2.12 2.45 2.67 2.60 2.49 2.19 2.03 1.98 1.96 2.00 2.12 2.31 2.26 2.28 2.31 2.22 2.13 2.01 1.89 1.88 1.74 1.61
0.86 0.87 0.84 0.84 0.87 1.00 1.13 1.03 1.06 1.01 1.05 1.11 1.20 1.29 1.20 1.10 1.25 1.29 1.41 1.48 1.44 1.50 1.82 2.20 2.37 2.39 2.37 2.24 2.17 2.03 1.98 2.03 2.08 2.13 2.32 2.37 2.34 2.32 2.24 2.24 2.34 2.14 1.93
0.85 0.84 0.89 0.89 0.88 0.96 1.00 0.91 1.00 0.95 0.94 0.99 1.12 1.24 1.29 1.23 1.28 1.41 1.37 1.37 1.29 1.26 1.51 1.54 1.76 2.16 2.33 2.41 2.33 2.32 2.44 2.39 2.21 2.11 2.15 2.21 2.09 2.12 2.18 2.21 2.37 2.27 2.12
0.86 0.90 0.95 0.95 0.88 0.88 0.98 0.92 0.96 0.92 0.92 0.95 0.97 1.06 1.16 1.13 1.37 1.51 1.40 1.51 1.50 1.37 1.57 1.69 1.76 1.87 2.07 2.27 2.33 2.27 2.29 2.35 2.30 2.18 2.01 1.91 1.82 1.86 1.98 2.01 2.03 2.14 2.12
0.67 0.80 0.84 0.86 0.88 0.86 1.10 1.05 1.03 0.91 0.93 1.02 1.04 1.01 1.20 1.23 1.41 1.41 1.27 1.46 1.51 1.47 1.45 1.50 1.50 1.52 1.49 1.69 1.97 2.02 2.19 2.25 2.17 2.08 1.81 1.72 1.68 1.76 1.86 1.69 1.53 1.53 1.56